Regional Weather Roundup
Issued by NWS

Home | Current Version | Previous Version | Text Only | Print | Product List | Glossary On
Versions: 1 2 3 4 5 6 7 8 9 10 11 12 13 14 15 16 17 18 19 20 21 22 23 24 25 26 27 28 29 30 31 32 33 34 35 36 37 38 39 40 41 42 43 44 45 46 47 48 49 50
000
ASUS43 KDTX 300601
RWRMI
MICHIGAN HOURLY REGIONAL WEATHER ROUNDUP
NATIONAL WEATHER SERVICE DETROIT/PONTIAC MI
200 AM EDT THU OCT 30 2014

NOTE: "FAIR" INDICATES FEW OR NO CLOUDS BELOW 12,000 FEET WITH NO
SIGNIFICANT WEATHER AND/OR OBSTRUCTION TO VISIBILITY.

MIZ047>049-052>055-059>063-066>070-074>076-081>083-300700-
SOUTHEAST LOWER MICHIGAN

CITY           SKY/WX    TMP DP  RH WIND       PRES   REMARKS
ADRIAN         PTCLDY    40  36  86 NW7       30.11R
6HR MIN TEMP:  40; 6HR MAX TEMP:  43;

ALMA           CLEAR     32  32  99 CALM      30.11S FOG
ANN ARBOR      CLEAR     40  34  79 NW5       30.09R
BAD AXE        CLOUDY    42  36  80 NW6       30.08R
6HR MIN TEMP:  42; 6HR MAX TEMP:  46;

CARO           CLOUDY    42  36  78 NW3       30.08R
DETROIT CITY   CLEAR     45  34  65 N7        30.09R
6HR MIN TEMP:  45; 6HR MAX TEMP:  48;

DETROIT        MOCLDY    41  35  79 NW7       30.10R
6HR MIN TEMP:  41; 6HR MAX TEMP:  46;

FLINT          CLOUDY    39  34  82 W6        30.10S WCI  35
6HR MIN TEMP:  38; 6HR MAX TEMP:  47;

GROSSE ILE     CLOUDY    45  37  76 NW6       30.07S
HILLSDALE      CLEAR     36  35  98 CALM      30.10S
6HR MIN TEMP:  35; 6HR MAX TEMP:  42;

HOWELL         CLOUDY    37  34  89 NW3       30.10R
6HR MIN TEMP:  37; 6HR MAX TEMP:  43;


CITY           SKY/WX    TMP DP  RH WIND       PRES   REMARKS
JACKSON        CLEAR     34  32  92 W3        30.10S
6HR MIN TEMP:  34; 6HR MAX TEMP:  43;

LAMBERTVILLE   CLOUDY    43  37  81 CALM      30.10S
LANSING        CLEAR     35  32  88 CALM      30.11S
6HR MIN TEMP:  35; 6HR MAX TEMP:  45; 6HR PCP: TRACE;

LAPEER         CLOUDY    41  35  77 NW3       30.08S
MASON          CLEAR     35  33  89 CALM      30.11R
MONROE         CLOUDY    41  37  87 NW5       30.08S
MT. CLEMENS    CLEAR     41  36  83 NW6       30.06R
6HR MIN TEMP:  41; 6HR MAX TEMP:  47;

PONTIAC        CLOUDY    41  34  76 W8        30.08R
6HR MIN TEMP:  40; 6HR MAX TEMP:  45;

PORT HOPE        N/A     44  34  67 N5        30.05R
6HR MIN TEMP:  44; 6HR MAX TEMP:  47;

PORT HURON     CLOUDY    43  36  75 NW5       30.07R
TRI CITIES     CLEAR     35  32  88 W7        30.11R WCI  29
6HR MIN TEMP:  35; 6HR MAX TEMP:  46;

TROY           CLEAR     43  33  65 NW7       30.10R
SAGINAW HB     CLOUDY    39  36  87 W5        30.09S
$$
MIZ043>046-050>051-056>058-064>065-071>073-077>080-300700-
SOUTHWEST LOWER MICHIGAN

CITY           SKY/WX    TMP DP  RH WIND       PRES   REMARKS
BATTLE CREEK   CLOUDY    43  36  76 CALM      30.11S
6HR MIN TEMP:  41; 6HR MAX TEMP:  44;

BENTON HARBOR  CLOUDY    47  34  60 W5        30.12R
6HR MIN TEMP:  46; 6HR MAX TEMP:  47;

BIG RAPIDS     PTCLDY    31  31 100 CALM      30.09S
6HR MIN TEMP:  30; 6HR MAX TEMP:  41;

COLDWATER      CLOUDY    42  40  90 CALM      30.11S
6HR MIN TEMP:  42; 6HR MAX TEMP:  44;

FREMONT        CLOUDY    40  38  93 CALM      30.10R
HOLLAND        CLOUDY    46  39  76 S3        30.12R
6HR MIN TEMP:  45; 6HR MAX TEMP:  49;

GRAND RAPIDS   CLEAR     35  33  92 CALM      30.11R
6HR MIN TEMP:  35; 6HR MAX TEMP:  44;

IONIA          FAIR      34  33  94 CALM      30.10S
KALAMAZOO      CLOUDY    43  38  82 CALM      30.11S
6HR MIN TEMP:  43; 6HR MAX TEMP:  45; 6HR PCP: TRACE;

LUDINGTON      CLOUDY    45  39  79 NW3       30.10S
6HR MIN TEMP:  41; 6HR MAX TEMP:  45;

MARSHALL       CLOUDY    33  32  96 CALM      30.10S
MOUNT PLEASANT PTCLDY    32  31  98 CALM      30.09S
6HR MIN TEMP:  32; 6HR MAX TEMP:  42;

MUSKEGON       CLOUDY    44  38  79 CALM      30.11R
6HR MIN TEMP:  44; 6HR MAX TEMP:  46;

SOUTH HAVEN    CLOUDY    46  38  72 E3        30.11S
$$
MIZ016>042-300700-
NORTHERN LOWER MICHIGAN

CITY           SKY/WX    TMP DP  RH WIND       PRES   REMARKS
ALPENA         MOCLDY    37  30  75 VRB5      30.06S WCI  33
6HR MIN TEMP:  36; 6HR MAX TEMP:  43;

BEAVER ISLAND  CLOUDY    34  32  92 CALM      30.08F
6HR MIN TEMP:  34; 6HR MAX TEMP:  42;

CADILLAC       CLOUDY    38  36  92 CALM      30.07R
CHARLEVOIX     CLOUDY    41  33  73 NW7       30.12S
6HR MIN TEMP:  40; 6HR MAX TEMP:  42;

FRANKFORT      CLOUDY    42  39  89 SE3       30.09S
GAYLORD        CLOUDY    36  32  85 CALM      30.07R
6HR MIN TEMP:  36; 6HR MAX TEMP:  39;

GRAYLING       CLOUDY    33  33  99 SW3       30.08R
6HR MIN TEMP:  33; 6HR MAX TEMP:  38;

HARBOR SPRINGS MOCLDY    32  30  94 CALM      30.09R
HOUGHTON LAKE  MOCLDY    37  35  92 NW5       30.08R WCI  33
6HR MIN TEMP:  36; 6HR MAX TEMP:  39; 6HR PCP: TRACE;

MANISTEE       CLOUDY    41  37  87 CALM      30.10S
OSCODA         CLEAR     37  31  79 NW3       30.06S
PELLSTON       PTCLDY    30  28  92 CALM      30.09R
6HR MIN TEMP:  30; 6HR MAX TEMP:  42;

TRAVERSE CITY  CLOUDY    44  35  70 N3        30.09R
6HR MIN TEMP:  43; 6HR MAX TEMP:  45;

$$
MIZ007>008-015-300700-
EASTERN UPPER MICHIGAN

CITY           SKY/WX    TMP DP  RH WIND       PRES   REMARKS
KINROSS        CLOUDY    36  36 100 W7        30.05S WCI  30
6HR MIN TEMP:  32; 6HR MAX TEMP:  37;

MACKINAC ISLAN CLOUDY    37  32  81 W7        30.08R WCI  31
6HR MIN TEMP:  37; 6HR MAX TEMP:  38;

NEWBERRY       MOCLDY    31  31  99 SW5       30.05F WCI  26
S. S. MARIE    CLOUDY    37  34  89 CALM      30.04R
6HR MIN TEMP:  37; 6HR MAX TEMP:  40; 6HR PCP: TRACE;

MUNISING         N/A     39  35  86 S3        30.06F
6HR MIN TEMP:  38; 6HR MAX TEMP:  43;

$$
MIZ004>006-011>014-085-300700-
CENTRAL UPPER MICHIGAN

CITY           SKY/WX    TMP DP  RH WIND       PRES   REMARKS
MANISTIQUE     CLOUDY    33  32  99 W3        30.08S
ESCANABA       CLOUDY    37  34  87 W3        30.09R
6HR MIN TEMP:  32; 6HR MAX TEMP:  43;

MENOMINEE      CLOUDY    43  32  65 CALM      30.09F
6HR MIN TEMP:  43; 6HR MAX TEMP:  45;

SAWYER-GWINN   CLOUDY    37  33  88 CALM      30.06S
6HR MIN TEMP:  34; 6HR MAX TEMP:  38;

$$
MIZ001>003-009>011-084-300700-
WESTERN UPPER MICHIGAN

CITY           SKY/WX    TMP DP  RH WIND       PRES   REMARKS
IRON MOUNTAIN  CLOUDY    38  34  85 CALM      30.05F
6HR MIN TEMP:  31; 6HR MAX TEMP:  40;

HOUGHTON       CLOUDY    40  36  86 W8        30.02F WCI  34
6HR MIN TEMP:  39; 6HR MAX TEMP:  40; 6HR PCP:  0.02;

COPPER HARBOR    N/A     39  36  89 CALM      30.04S
6HR MIN TEMP:  39; 6HR MAX TEMP:  42; 6HR PCP:  0.01;

IRONWOOD       CLOUDY    37  34  87 S5        30.04S WCI  34
6HR MIN TEMP:  37; 6HR MAX TEMP:  39;

$$

ABBREVIATIONS USED IN REMARKS
   TC - TEMPERATURE IN CELSIUS
  WCI - WIND CHILL INDEX
   HX - HEAT INDEX
  VSB - VISIBILITY




USA.gov is the U.S. government's official web portal to all federal, state and local government web resources and services.